AirNav   Air Wisconsin pilot careers
 
 1457 users online  

CYAM Sault Ste Marie Airport
Sault Ste Marie, Ontario, Canada


FAA INFORMATION EFFECTIVE 07 DECEMBER 2017

Location

FAA Identifier: CYAM
Lat/Long: 46-29-06.0000N / 084-30-34.0000W
46-29.100000N / 084-30.566667W
46.4850000 / -84.5094444
(estimated)
Elevation: 630 ft. / 192 m (estimated)
Variation: 07W ()
From city: 8 miles WSW of SAULT STE MARIE,
Time zone: UTC -5 (UTC -4 during Daylight Saving Time)
Zip code: 49710

Airport Operations

Airport use: Open to the public
Activation date: 03/2005
Control tower: no
ARTCC: TORONTO CENTER
FSS: LONDON FIC FLIGHT SERVICE STATION
Attendance: 
Segmented circle: no

Airport Communications

WX ASOS at ANJ (6 nm E): 118.375 (906-632-8501)
WX AWOS-3PT at CIU (14 nm S): 127.575 (906-495-7134)

Nearby radio navigation aids

VOR radial/distance  VOR name  Freq  Var
SSMr303/9.2SAULT STE MARIE VOR/DME112.2004W

 
NDB name  Hdg/Dist  Freq  Var  ID
KOLOE015/9.340007WCI -.-. ..

Airport Services

Runway Information

Runway 4/22

Dimensions: 6000 x 200 ft. / 1829 x 61 m
Surface: asphalt
RUNWAY 4  RUNWAY 22
Traffic pattern: leftleft

Runway 12/30

Dimensions: 6000 x 200 ft. / 1829 x 61 m
Surface: asphalt
RUNWAY 12  RUNWAY 30
Traffic pattern: leftleft

Airport Ownership and Management from official FAA records

Ownership: Publicly-owned

Instrument Procedures

There are no published instrument procedures at CYAM.

Some nearby airports with instrument procedures:

KANJ - Sault Ste Marie Municipal Airport/Sanderson Field (6 nm E)
KCIU - Chippewa County International Airport (14 nm S)
83D - Mackinac County Airport (37 nm S)
KMCD - Mackinac Island Airport (38 nm S)
KERY - Luce County Airport (41 nm W)
 
Loc | Ops | Rwys | IFR | FBO | Links
Com | Nav | Svcs | Stats | Notes


 
Aerial photo
No photo
 
Airport distance calculator
Flying to Sault Ste Marie Airport? Find the distance to fly.

From to CYAM

Sunrise and sunset
Times for 14-Dec-2017
 Local
(UTC-5)
 Zulu
(UTC)
Morning civil twilight07:4012:40
Sunrise08:1513:15
Sunset16:5021:50
Evening civil twilight17:2522:25

Current date and time
Zulu (UTC)  14-Dec-2017 17:39:56
Local (UTC-5)  14-Dec-2017 12:39:56
 
METAR
CYAM 141705Z 13003KT 090V160 10SM -SN FEW004 SCT008 OVC028 M15/M17 A2994 RMK ST2ST2SC4 VIS W-N 1 1/2 SLP160
KANJ 
6nm E 
141709Z AUTO 14004KT 6SM HZ SCT009 SCT017 OVC027 M16/M19 A2993 RMK AO2 UPE01 P0000 T11611189
KCIU 
14nm S 
141708Z AUTO 00000KT 5SM -SN FEW005 SCT016 OVC023 M12/M16 A2994 RMK AO2 FZRANO PNO $
TAF
CYAM 141338Z 1414/1502 07007KT 3SM -SN OVC004 TEMPO 1414/1416 P6SM NSW SCT004 OVC012 FM141600 12008KT P6SM -SN FEW006 BKN015 TEMPO 1416/1421 3SM -SN OVC006 FM142100 13008KT P6SM BKN012 TEMPO 1421/1502 6SM -SN RMK NXT FCST BY 142000Z
NOTAMs
Click for the latest NOTAMs
NOTAMs are issued by the DoD/FAA and will open in a separate window not controlled by AirNav.

 

 
 

Would you like to see your business listed on this page?

 If your business provides an interesting product or service to pilots, flight crews, aircraft, or users of the Sault Ste Marie Airport, you should consider listing it here.  To start the listing process, click on the button below
 
Add a business
 

Other Pages about Sault Ste Marie Airport

Update a link
 
Copyright © AirNav, LLC. All rights reserved. Privacy Policy  Contact